EW7786 Weather Reports


time (UTC)temp
F
wind
direction
speed
knots
gust
knots
rain 1hr
in
rain 24hr
in
rain mn
in
humidity
%
barometer
mb
20260504081505 57 184 2.6 7.0 0.00 0.00 0.00 39 1005.3
20260504044534 60 153 0.9 2.6 0.00 0.00 0.00 39 1007.0
20260504043034 60 152 1.7 4.3 0.00 0.00 0.00 39 1007.3
20260504041534 60 167 2.6 4.3 0.00 0.00 0.00 39 1007.6
20260504040033 61 175 1.7 4.3 0.00 0.00 0.00 39 1007.6
20260504034533 61 191 2.6 4.3 0.00 0.00 0.00 39 1007.9
20260504033037 61 217 2.6 3.5 0.00 0.00 0.00 39 1007.8
20260504031532 61 217 1.7 3.5 0.00 0.00 0.00 39 1008.0
20260504030031 61 222 2.6 4.3 0.00 0.00 0.00 39 1008.1
20260504024529 61 323 1.7 2.6 0.00 0.00 0.00 39 1008.3
20260504023030 61 324 0.0 0.0 0.00 0.00 0.00 39 1008.2
20260504021530 62 324 0.0 1.7 0.00 0.00 0.00 39 1007.9
20260504020031 62 324 1.7 2.6 0.00 0.00 0.00 39 1008.2
20260504014541 62 324 0.9 4.3 0.00 0.00 0.00 39 1008.0
20260504013027 63 323 3.5 4.3 0.00 0.00 0.00 39 1007.9
20260504011527 64 323 2.6 5.2 0.00 0.00 0.00 39 1007.5
20260504010026 64 324 0.9 2.6 0.00 0.00 0.00 39 1007.6
20260504004524 65 324 0.0 3.5 0.00 0.00 0.00 39 1007.3
20260504003023 65 323 4.3 7.0 0.00 0.00 0.00 39 1007.8
20260504001525 67 290 5.2 7.0 0.00 0.00 0.00 39 1007.9
20260504000037 68 265 2.6 7.0 0.00 0.00 0.00 39 1007.1
20260503234519 69 297 7.8 13.0 0.00 0.00 0.00 39 1007.7
20260503233020 70 265 8.7 12.2 0.00 0.00 0.00 39 1007.4
20260503231513 71 277 13.0 17.4 0.00 0.00 0.00 39 1008.1
20260503230012 72 260 12.2 18.2 0.00 0.00 0.00 39 1007.8
20260503224511 72 264 14.8 20.0 0.00 0.00 0.00 39 1007.6
20260503223010 72 244 13.9 21.7 0.00 0.00 0.00 39 1007.2
20260503221508 72 242 15.6 21.7 0.00 0.00 0.00 39 1007.5
20260503220007 72 245 17.4 22.6 0.00 0.00 0.00 39 1007.9
20260503214520 72 240 18.2 27.8 0.00 0.00 0.00 39 1007.6
20260503213005 72 240 18.2 24.3 0.00 0.00 0.00 39 1008.0
20260503211506 72 230 18.2 25.2 0.00 0.00 0.00 39 1008.0
20260503210007 72 215 17.4 20.9 0.00 0.00 0.00 39 1008.3
20260503204609 71 220 15.6 24.3 0.00 0.00 0.00 39 1008.8
20260503203106 71 231 15.6 23.5 0.00 0.00 0.00 39 1008.9
20260503201555 69 236 14.8 21.7 0.00 0.00 0.00 39 1009.6
20260503200052 69 213 16.5 20.9 0.00 0.00 0.00 39 1009.8
20260503194606 68 227 20.0 24.3 0.00 0.00 0.00 39 1009.9
20260503193048 66 221 17.4 23.5 0.00 0.00 0.00 39 1010.1
20260503191548 66 215 20.9 23.5 0.00 0.00 0.00 39 1010.1
20260503190057 66 203 15.6 26.1 0.00 0.00 0.00 39 1010.2
20260503184546 67 190 20.0 26.1 0.00 0.00 0.00 39 1010.6
20260503183051 67 214 19.1 24.3 0.00 0.00 0.00 39 1010.5
20260503181542 67 219 20.0 28.7 0.00 0.00 0.00 39 1011.1
20260503180042 67 219 19.1 26.1 0.00 0.00 0.00 39 1011.4
20260503174538 65 209 20.0 28.7 0.00 0.00 0.00 39 1012.0
20260503173106 66 202 20.9 33.0 0.00 0.00 0.00 39 1012.2
20260503171536 65 198 24.3 31.3 0.00 0.00 0.00 39 1011.9
20260503100112 42 188 3.5 6.1 0.00 0.00 0.00 39 1016.5